Location: Recife
(8.0585°S, 34.8848°W)
Time: 12:32:54
(UTC-03:00)

Hubble Space Telescope - Pass Details

Date: 01 October 2021
Orbit: 535 x 538 km, 28.5° (Epoch: 21 October)

Event Time Altitude Azimuth Distance (km) Brightness Sun altitude
Rises 18:39:41 0° 265° (W) 2,669 5.9 -21.9°
Reaches altitude 10° 18:42:33 10° 245° (WSW) 1,782 4.4 -22.6°
Maximum altitude 18:45:20 17° 203° (SSW) 1,385 3.2 -23.2°
Enters shadow 18:47:00 14° 174° (S) 1,544 3.1 -23.6°
